When you browse on this site, cookies collect data to enhance your experience and personalize the content and advertising you see.
Visit our Privacy Policy to learn more. By continuing to use the site, you agree to this use of cookies and data.
  • In United Kingdom
  • List of Countries
  • For 7 days
  • Water Temperature
  • Weather Map
  • Weather Widgets
  • user-avatar
    Login

    Hourly Weather Chester-le-Street

    Today, 1 June, Monday

    Time Temperature Precipitation Wind Pressure Humidity
    00:00 +11°C° 0 mm 1 mps 765 mmHg 85%
    01:00 +11°C° 0 mm 1 mps 765 mmHg 84%
    02:00 +11°C° 0 mm 1 mps 765 mmHg 84%
    03:00 +9°C° 0 mm 0 mps 765 mmHg 84%
    04:00 +10°C° 0 mm 0 mps 765 mmHg 81%
    05:00 +11°C° 0 mm 0 mps 765 mmHg 78%
    06:00 +13°C° 0 mm 0 mps 765 mmHg 77%
    07:00 +15°C° 0 mm 1 mps 765 mmHg 71%
    08:00 +16°C° 0 mm 2 mps 765 mmHg 65%
    09:00 +18°C° 0 mm 3 mps 765 mmHg 58%
    10:00 +18°C° 0 mm 3 mps 765 mmHg 57%
    11:00 +19°C° 0 mm 3 mps 765 mmHg 55%
    12:00 +20°C° 0 mm 4 mps 765 mmHg 52%
    13:00 +19°C° 0 mm 4 mps 765 mmHg 55%
    14:00 +19°C° 0 mm 4 mps 765 mmHg 58%
    15:00 +19°C° 0 mm 4 mps 764 mmHg 61%
    16:00 +18°C° 0 mm 4 mps 764 mmHg 63%
    17:00 +18°C° 0 mm 3 mps 764 mmHg 65%
    18:00 +17°C° 0 mm 3 mps 764 mmHg 66%
    19:00 +15°C° 0 mm 2 mps 764 mmHg 69%
    20:00 +14°C° 0 mm 2 mps 764 mmHg 73%
    21:00 +12°C° 0 mm 1 mps 764 mmHg 76%
    22:00 +11°C° 0 mm 1 mps 764 mmHg 76%
    23:00 +11°C° 0 mm 1 mps 764 mmHg 77%

    Tomorrow, 2 June, Tuesday

    Time Temperature Precipitation Wind Pressure Humidity
    00:00 +10°C° 0 mm 0 mps 764 mmHg 77%
    01:00 +10°C° 0 mm 0 mps 763 mmHg 74%
    02:00 +11°C° 0 mm 1 mps 763 mmHg 72%
    03:00 +10°C° 0 mm 1 mps 763 mmHg 69%
    04:00 +10°C° 0 mm 0 mps 763 mmHg 67%
    05:00 +12°C° 0 mm 0 mps 762 mmHg 65%
    06:00 +13°C° 0 mm 0 mps 762 mmHg 62%
    07:00 +14°C° 0 mm 0 mps 762 mmHg 59%
    08:00 +16°C° 0 mm 0 mps 762 mmHg 55%
    09:00 +19°C° 0 mm 1 mps 761 mmHg 51%
    10:00 +20°C° 0 mm 1 mps 761 mmHg 49%
    11:00 +21°C° 0 mm 1 mps 761 mmHg 47%
    12:00 +23°C° 0 mm 1 mps 760 mmHg 46%
    13:00 +21°C° 0.1 mm 2 mps 760 mmHg 49%
    14:00 +21°C° 0.1 mm 2 mps 759 mmHg 53%
    15:00 +21°C° 0.1 mm 3 mps 758 mmHg 56%
    16:00 +20°C° 0.6 mm 2 mps 758 mmHg 65%
    17:00 +18°C° 0.6 mm 2 mps 758 mmHg 74%
    18:00 +17°C° 0.6 mm 2 mps 757 mmHg 82%
    19:00 +16°C° 0.3 mm 2 mps 757 mmHg 84%
    20:00 +15°C° 0.3 mm 1 mps 757 mmHg 86%
    21:00 +14°C° 0.3 mm 1 mps 756 mmHg 88%
    22:00 +14°C° 0.6 mm 2 mps 756 mmHg 90%
    23:00 +13°C° 0.6 mm 2 mps 756 mmHg 91%

    Day after tomorrow, 3 June, Wednesday

    Time Temperature Precipitation Wind Pressure Humidity
    00:00 +12°C° 0.6 mm 3 mps 755 mmHg 92%
    01:00 +12°C° 1.4 mm 3 mps 755 mmHg 93%
    02:00 +11°C° 1.4 mm 4 mps 755 mmHg 94%
    03:00 +10°C° 1.4 mm 5 mps 754 mmHg 95%
    04:00 +9°C° 1.1 mm 5 mps 754 mmHg 95%
    05:00 +9°C° 1.1 mm 6 mps 754 mmHg 94%
    06:00 +9°C° 1.1 mm 6 mps 754 mmHg 94%
    07:00 +9°C° 0.4 mm 7 mps 754 mmHg 93%
    08:00 +9°C° 0.4 mm 7 mps 754 mmHg 92%
    09:00 +9°C° 0.4 mm 8 mps 754 mmHg 92%
    10:00 +10°C° 0.1 mm 8 mps 754 mmHg 89%
    11:00 +10°C° 0.1 mm 7 mps 754 mmHg 87%
    12:00 +11°C° 0.1 mm 7 mps 754 mmHg 85%
    13:00 +11°C° 0.2 mm 8 mps 754 mmHg 86%
    14:00 +10°C° 0.2 mm 8 mps 754 mmHg 88%
    15:00 +10°C° 0.2 mm 8 mps 754 mmHg 90%
    16:00 +8°C° 0.4 mm 9 mps 754 mmHg 90%
    17:00 +8°C° 0.4 mm 9 mps 754 mmHg 89%
    18:00 +8°C° 0.4 mm 9 mps 754 mmHg 89%
    19:00 +7°C° 0.1 mm 8 mps 754 mmHg 88%
    20:00 +8°C° 0.1 mm 7 mps 754 mmHg 87%
    21:00 +7°C° 0.1 mm 6 mps 754 mmHg 86%
    22:00 +7°C° 0 mm 6 mps 754 mmHg 86%
    23:00 +7°C° 0 mm 5 mps 754 mmHg 86%

    4 June, Thursday

    Time Temperature Precipitation Wind Pressure Humidity
    00:00 +6°C° 0 mm 5 mps 753 mmHg 85%
    01:00 +6°C° 0 mm 5 mps 753 mmHg 86%
    02:00 +5°C° 0 mm 5 mps 752 mmHg 86%
    03:00 +5°C° 0 mm 4 mps 752 mmHg 86%
    04:00 +5°C° 0 mm 4 mps 751 mmHg 84%
    05:00 +6°C° 0 mm 4 mps 751 mmHg 82%
    06:00 +7°C° 0 mm 4 mps 750 mmHg 80%
    07:00 +8°C° 0 mm 5 mps 750 mmHg 76%
    08:00 +9°C° 0 mm 5 mps 749 mmHg 71%
    09:00 +10°C° 0 mm 5 mps 749 mmHg 66%
    10:00 +10°C° 0.1 mm 5 mps 749 mmHg 68%
    11:00 +10°C° 0.1 mm 5 mps 749 mmHg 69%
    12:00 +10°C° 0.1 mm 5 mps 748 mmHg 71%
    13:00 +10°C° 0.1 mm 5 mps 748 mmHg 71%
    14:00 +10°C° 0.1 mm 5 mps 748 mmHg 71%
    15:00 +10°C° 0.1 mm 5 mps 747 mmHg 71%
    16:00 +10°C° 0 mm 6 mps 747 mmHg 70%
    17:00 +9°C° 0 mm 6 mps 747 mmHg 68%
    18:00 +9°C° 0 mm 6 mps 747 mmHg 67%
    19:00 +8°C° 0 mm 6 mps 747 mmHg 72%
    20:00 +7°C° 0 mm 6 mps 747 mmHg 77%
    21:00 +5°C° 0 mm 6 mps 747 mmHg 81%
    22:00 +4°C° 0 mm 6 mps 747 mmHg 82%
    23:00 +4°C° 0 mm 6 mps 747 mmHg 82%

    5 June, Friday

    Time Temperature Precipitation Wind Pressure Humidity
    00:00 +3°C° 0 mm 6 mps 747 mmHg 82%
    01:00 +3°C° 0 mm 6 mps 747 mmHg 82%
    02:00 +3°C° 0 mm 7 mps 747 mmHg 82%
    03:00 +3°C° 0 mm 7 mps 746 mmHg 82%
    04:00 +4°C° 0 mm 7 mps 746 mmHg 80%
    05:00 +4°C° 0 mm 7 mps 746 mmHg 77%
    06:00 +5°C° 0 mm 7 mps 746 mmHg 75%
    07:00 +6°C° 0 mm 7 mps 746 mmHg 70%
    08:00 +9°C° 0 mm 6 mps 745 mmHg 65%
    09:00 +10°C° 0 mm 6 mps 745 mmHg 59%
    10:00 +10°C° 0 mm 6 mps 745 mmHg 59%
    11:00 +11°C° 0 mm 6 mps 745 mmHg 59%
    12:00 +12°C° 0 mm 5 mps 745 mmHg 59%
    13:00 +12°C° 0.1 mm 5 mps 745 mmHg 61%
    14:00 +12°C° 0.1 mm 5 mps 744 mmHg 62%
    15:00 +12°C° 0.1 mm 4 mps 744 mmHg 64%
    16:00 +12°C° 0.1 mm 4 mps 744 mmHg 67%
    17:00 +12°C° 0.1 mm 4 mps 744 mmHg 69%
    18:00 +11°C° 0.1 mm 3 mps 744 mmHg 72%
    19:00 +10°C° 0.1 mm 3 mps 744 mmHg 75%
    20:00 +10°C° 0.1 mm 3 mps 744 mmHg 78%
    21:00 +9°C° 0.1 mm 3 mps 744 mmHg 81%
    22:00 +8°C° 0 mm 3 mps 744 mmHg 82%
    23:00 +8°C° 0 mm 3 mps 744 mmHg 82%

    6 June, Saturday

    Time Temperature Precipitation Wind Pressure Humidity
    00:00 +7°C° 0 mm 3 mps 744 mmHg 82%
    01:00 +6°C° 0 mm 4 mps 744 mmHg 82%
    02:00 +5°C° 0 mm 4 mps 745 mmHg 82%
    03:00 +5°C° 0 mm 4 mps 745 mmHg 82%
    04:00 +5°C° 0 mm 5 mps 745 mmHg 79%
    05:00 +5°C° 0 mm 5 mps 745 mmHg 77%
    06:00 +5°C° 0 mm 6 mps 745 mmHg 74%
    07:00 +7°C° 0 mm 6 mps 745 mmHg 69%
    08:00 +8°C° 0 mm 7 mps 745 mmHg 63%
    09:00 +9°C° 0 mm 7 mps 744 mmHg 57%
    10:00 +10°C° 0 mm 8 mps 744 mmHg 55%
    11:00 +10°C° 0 mm 9 mps 744 mmHg 53%
    12:00 +11°C° 0 mm 10 mps 743 mmHg 51%
    13:00 +9°C° 0 mm 10 mps 743 mmHg 53%
    14:00 +9°C° 0 mm 10 mps 743 mmHg 55%
    15:00 +9°C° 0 mm 11 mps 743 mmHg 57%
    16:00 +8°C° 0.1 mm 11 mps 743 mmHg 64%
    17:00 +7°C° 0.1 mm 11 mps 743 mmHg 71%
    18:00 +6°C° 0.1 mm 10 mps 743 mmHg 77%
    19:00 +5°C° 0.1 mm 10 mps 743 mmHg 78%
    20:00 +3°C° 0.1 mm 10 mps 743 mmHg 80%
    21:00 +3°C° 0.1 mm 10 mps 743 mmHg 81%
    22:00 +3°C° 0 mm 10 mps 743 mmHg 79%
    23:00 +3°C° 0 mm 10 mps 743 mmHg 77%
    Show more